| time (UTC) | temp F | wind direction | speed knots | gust knots | rain 1hr in | rain 24hr in | rain mn in | humidity % | barometer mb |
| 20260505011752 | 73 | 63 | 0.0 | 0.0 | 0.00 | 0.00 | 0.00 | 60 | 1002.1 |
| 20260505011235 | 74 | 64 | 0.0 | 0.0 | 0.00 | 0.00 | 0.00 | 59 | 1002.1 |
| 20260505010959 | 74 | 115 | 0.0 | 1.7 | 0.00 | 0.00 | 0.00 | 58 | 1002.1 |
| 20260505010232 | 74 | 68 | 0.0 | 1.7 | 0.00 | 0.00 | 0.00 | 57 | 1002.1 |
| 20260505005735 | 75 | 96 | 0.0 | 4.3 | 0.00 | 0.00 | 0.00 | 58 | 1002.1 |
| 20260505005230 | 76 | 47 | 0.0 | 4.3 | 0.00 | 0.00 | 0.00 | 56 | 1001.8 |
| 20260505004735 | 76 | 69 | 0.9 | 1.7 | 0.00 | 0.00 | 0.00 | 55 | 1001.5 |
| 20260505004226 | 76 | 237 | 0.0 | 1.7 | 0.00 | 0.00 | 0.00 | 56 | 1001.8 |
| 20260505003714 | 76 | 116 | 0.0 | 4.3 | 0.00 | 0.00 | 0.00 | 56 | 1001.8 |
| 20260505003437 | 76 | 11 | 0.0 | 7.0 | 0.00 | 0.00 | 0.00 | 55 | 1001.8 |
| 20260505002921 | 77 | 118 | 3.5 | 7.0 | 0.00 | 0.00 | 0.00 | 55 | 1001.5 |
| 20260505002158 | 77 | 52 | 0.0 | 4.3 | 0.00 | 0.00 | 0.00 | 53 | 1001.5 |
| 20260505001658 | 77 | 316 | 1.7 | 7.0 | 0.00 | 0.00 | 0.00 | 53 | 1001.8 |
| 20260505001142 | 78 | 90 | 0.0 | 7.0 | 0.00 | 0.00 | 0.00 | 53 | 1001.8 |
| 20260505000636 | 78 | 343 | 0.0 | 1.7 | 0.00 | 0.00 | 0.00 | 52 | 1001.8 |
| 20260505000133 | 78 | 326 | 0.9 | 4.3 | 0.00 | 0.00 | 0.00 | 52 | 1001.8 |
| 20260504235624 | 78 | 25 | 0.0 | 4.3 | 0.00 | 0.00 | 0.00 | 51 | 1001.8 |
| 20260504235129 | 79 | 322 | 2.6 | 4.3 | 0.00 | 0.00 | 0.00 | 52 | 1001.5 |
| 20260504234629 | 79 | 89 | 0.9 | 8.7 | 0.00 | 0.00 | 0.00 | 50 | 1001.8 |
| 20260504234114 | 79 | 15 | 5.2 | 8.7 | 0.00 | 0.00 | 0.00 | 50 | 1001.8 |
| 20260504233618 | 79 | 35 | 1.7 | 7.0 | 0.00 | 0.00 | 0.00 | 52 | 1001.8 |
| 20260504233114 | 80 | 113 | 0.9 | 7.0 | 0.00 | 0.00 | 0.00 | 49 | 1001.8 |
| 20260504232614 | 80 | 151 | 0.0 | 8.7 | 0.00 | 0.00 | 0.00 | 50 | 1001.8 |
| 20260504232113 | 80 | 90 | 0.0 | 4.3 | 0.00 | 0.00 | 0.00 | 50 | 1002.1 |
| 20260504231602 | 80 | 158 | 0.0 | 4.3 | 0.00 | 0.00 | 0.00 | 51 | 1001.8 |
| 20260504231109 | 80 | 306 | 0.9 | 4.3 | 0.00 | 0.00 | 0.00 | 50 | 1002.1 |
| 20260504230532 | 80 | 88 | 0.0 | 4.3 | 0.00 | 0.00 | 0.00 | 49 | 1002.1 |
| 20260504230035 | 80 | 346 | 0.9 | 4.3 | 0.00 | 0.00 | 0.00 | 50 | 1002.1 |
| 20260504225511 | 81 | 50 | 0.0 | 8.7 | 0.00 | 0.00 | 0.00 | 50 | 1002.1 |
| 20260504225010 | 81 | 350 | 5.2 | 8.7 | 0.00 | 0.00 | 0.00 | 48 | 1002.1 |
| 20260504224500 | 81 | 353 | 1.7 | 7.0 | 0.00 | 0.00 | 0.00 | 49 | 1002.1 |
| 20260504223954 | 81 | 175 | 0.0 | 7.0 | 0.00 | 0.00 | 0.00 | 50 | 1002.1 |
| 20260504223428 | 81 | 136 | 0.0 | 8.7 | 0.00 | 0.00 | 0.00 | 49 | 1002.1 |
| 20260504222933 | 81 | 328 | 2.6 | 8.7 | 0.00 | 0.00 | 0.00 | 48 | 1002.1 |
| 20260504222418 | 81 | 345 | 0.0 | 8.7 | 0.00 | 0.00 | 0.00 | 49 | 1002.1 |
| 20260504221911 | 82 | 193 | 0.0 | 8.7 | 0.00 | 0.00 | 0.00 | 50 | 1002.1 |
| 20260504221357 | 81 | 95 | 0.9 | 8.7 | 0.00 | 0.00 | 0.00 | 49 | 1002.1 |
| 20260504220846 | 82 | 126 | 0.0 | 7.0 | 0.00 | 0.00 | 0.00 | 50 | 1002.1 |
| 20260504220348 | 82 | 144 | 0.9 | 7.0 | 0.00 | 0.00 | 0.00 | 49 | 1001.8 |
| 20260504215840 | 82 | 333 | 3.5 | 11.3 | 0.00 | 0.00 | 0.00 | 48 | 1001.8 |
| 20260504215607 | 82 | 4 | 7.0 | 11.3 | 0.00 | 0.00 | 0.00 | 48 | 1001.8 |
| 20260504214835 | 82 | 101 | 0.0 | 7.0 | 0.00 | 0.00 | 0.00 | 49 | 1001.8 |
| 20260504214340 | 82 | 165 | 0.0 | 8.7 | 0.00 | 0.00 | 0.00 | 49 | 1002.1 |
| 20260504213833 | 82 | 4 | 2.6 | 8.7 | 0.00 | 0.00 | 0.00 | 48 | 1001.8 |
| 20260504213321 | 82 | 30 | 5.2 | 8.7 | 0.00 | 0.00 | 0.00 | 48 | 1001.8 |
| 20260504212802 | 82 | 14 | 0.0 | 8.7 | 0.00 | 0.00 | 0.00 | 49 | 1001.8 |
| 20260504212258 | 82 | 51 | 0.9 | 8.7 | 0.00 | 0.00 | 0.00 | 48 | 1001.5 |
| 20260504211732 | 83 | 52 | 1.7 | 4.3 | 0.00 | 0.00 | 0.00 | 46 | 1001.5 |
| 20260504211237 | 83 | 122 | 0.0 | 8.7 | 0.00 | 0.00 | 0.00 | 50 | 1001.5 |
| 20260504210711 | 83 | 318 | 2.6 | 14.8 | 0.00 | 0.00 | 0.00 | 48 | 1001.8 |
| 20260504210210 | 83 | 323 | 5.2 | 14.8 | 0.00 | 0.00 | 0.00 | 47 | 1001.8 |
| 20260504205704 | 81 | 164 | 0.0 | 7.0 | 0.00 | 0.00 | 0.00 | 50 | 1001.8 |
| 20260504205410 | 80 | 129 | 0.0 | 7.0 | 0.00 | 0.00 | 0.00 | 51 | 1002.1 |
| 20260504204629 | 80 | 142 | 0.0 | 7.0 | 0.00 | 0.00 | 0.00 | 49 | 1001.8 |
| 20260504204134 | 80 | 335 | 0.0 | 4.3 | 0.00 | 0.00 | 0.00 | 50 | 1002.1 |
| 20260504203618 | 81 | 111 | 2.6 | 4.3 | 0.00 | 0.00 | 0.00 | 49 | 1001.8 |
| 20260504203110 | 81 | 11 | 0.0 | 4.3 | 0.00 | 0.00 | 0.00 | 49 | 1002.1 |
| 20260504203047 | 81 | 346 | 0.9 | 4.3 | 0.00 | 0.00 | 0.00 | 51 | 1002.1 |
| 20260504202048 | 80 | 39 | 0.0 | 4.3 | 0.00 | 0.00 | 0.00 | 51 | 1002.5 |
| 20260504201551 | 78 | 121 | 0.0 | 7.0 | 0.00 | 0.00 | 0.00 | 54 | 1002.5 |
| 20260504201037 | 77 | 105 | 0.0 | 8.7 | 0.00 | 0.00 | 0.00 | 54 | 1002.1 |
| 20260504200539 | 76 | 31 | 0.0 | 8.7 | 0.00 | 0.00 | 0.00 | 54 | 1002.1 |
| 20260504200044 | 76 | 334 | 0.0 | 8.7 | 0.00 | 0.00 | 0.00 | 55 | 1003.6 |
| 20260504195519 | 77 | 135 | 0.9 | 8.7 | 0.00 | 0.00 | 0.00 | 57 | 1003.9 |
| 20260504195019 | 78 | 332 | 2.6 | 7.0 | 0.00 | 0.00 | 0.00 | 49 | 1003.6 |
| 20260504194518 | 79 | 104 | 0.0 | 7.0 | 0.00 | 0.00 | 0.00 | 49 | 1003.9 |
| 20260504194003 | 79 | 335 | 0.0 | 4.3 | 0.00 | 0.00 | 0.00 | 47 | 1003.6 |
| 20260504193503 | 80 | 145 | 0.0 | 4.3 | 0.00 | 0.00 | 0.00 | 48 | 1003.2 |
| 20260504193004 | 80 | 113 | 0.0 | 8.7 | 0.00 | 0.00 | 0.00 | 48 | 1003.2 |
| 20260504192503 | 81 | 24 | 0.0 | 7.0 | 0.00 | 0.00 | 0.00 | 45 | 1003.2 |
| 20260504192004 | 82 | 328 | 0.0 | 7.0 | 0.00 | 0.00 | 0.00 | 46 | 1003.2 |
| 20260504191506 | 83 | 167 | 1.7 | 7.0 | 0.00 | 0.00 | 0.00 | 44 | 1003.6 |
| 20260504190941 | 85 | 154 | 1.7 | 7.0 | 0.00 | 0.00 | 0.00 | 46 | 1003.2 |
| 20260504190441 | 84 | 312 | 0.9 | 13.0 | 0.00 | 0.00 | 0.00 | 47 | 1003.2 |
| 20260504190210 | 83 | 319 | 1.7 | 11.3 | 0.00 | 0.00 | 0.00 | 47 | 1003.2 |
| 20260504185917 | 84 | 89 | 1.7 | 7.0 | 0.00 | 0.00 | 0.00 | 44 | 1003.2 |
| 20260504184934 | 84 | 349 | 0.9 | 8.7 | 0.00 | 0.00 | 0.00 | 49 | 1003.2 |
| 20260504184433 | 83 | 137 | 0.0 | 8.7 | 0.00 | 0.00 | 0.00 | 48 | 1003.6 |
| 20260504183928 | 84 | 16 | 0.0 | 8.7 | 0.00 | 0.00 | 0.00 | 46 | 1003.2 |
| 20260504183428 | 83 | 2 | 1.7 | 7.0 | 0.00 | 0.00 | 0.00 | 48 | 1003.6 |
| 20260504182919 | 84 | 37 | 1.7 | 4.3 | 0.00 | 0.00 | 0.00 | 46 | 1003.2 |
| 20260504182414 | 84 | 334 | 3.5 | 8.7 | 0.00 | 0.00 | 0.00 | 46 | 1003.6 |
| 20260504181914 | 84 | 282 | 1.7 | 8.7 | 0.00 | 0.00 | 0.00 | 45 | 1003.6 |
| 20260504181406 | 83 | 181 | 0.0 | 7.0 | 0.00 | 0.00 | 0.00 | 46 | 1003.2 |
| 20260504181150 | 84 | 83 | 0.0 | 8.7 | 0.00 | 0.00 | 0.00 | 48 | 1003.6 |
| 20260504180355 | 84 | 6 | 0.0 | 8.7 | 0.00 | 0.00 | 0.00 | 48 | 1003.6 |
| 20260504180118 | 83 | 6 | 0.0 | 4.3 | 0.00 | 0.00 | 0.00 | 46 | 1003.6 |
| 20260504175339 | 83 | 109 | 0.0 | 7.0 | 0.00 | 0.00 | 0.00 | 52 | 1003.6 |
| 20260504175116 | 82 | 357 | 4.3 | 8.7 | 0.00 | 0.00 | 0.00 | 50 | 1003.9 |
| 20260504174326 | 82 | 9 | 0.0 | 8.7 | 0.00 | 0.00 | 0.00 | 52 | 1003.9 |
| 20260504173824 | 82 | 332 | 2.6 | 4.3 | 0.00 | 0.00 | 0.00 | 52 | 1003.9 |
| 20260504173310 | 82 | 38 | 0.0 | 4.3 | 0.00 | 0.00 | 0.00 | 53 | 1003.9 |
| 20260504172803 | 82 | 4 | 0.0 | 11.3 | 0.00 | 0.00 | 0.00 | 52 | 1004.3 |
| 20260504172307 | 80 | 219 | 0.0 | 11.3 | 0.00 | 0.00 | 0.00 | 54 | 1004.3 |
| 20260504171802 | 80 | 3 | 0.9 | 7.0 | 0.00 | 0.00 | 0.00 | 53 | 1004.3 |
| 20260504171255 | 81 | 337 | 1.7 | 7.0 | 0.00 | 0.00 | 0.00 | 51 | 1004.6 |
| 20260504170741 | 81 | 210 | 0.0 | 4.3 | 0.00 | 0.00 | 0.00 | 53 | 1004.6 |
| 20260504170244 | 80 | 45 | 0.0 | 4.3 | 0.00 | 0.00 | 0.00 | 54 | 1004.6 |
| 20260504150931 | 76 | 96 | 0.0 | 1.7 | 0.00 | 0.00 | 0.00 | 55 | 1006.0 |
| 20260504150700 | 76 | 128 | 0.0 | 4.3 | 0.00 | 0.00 | 0.00 | 56 | 1006.0 |
| 20260504141330 | 76 | 8 | 0.0 | 1.7 | 0.00 | 0.00 | 0.00 | 59 | 1006.0 |
| 20260504140814 | 76 | 139 | 0.0 | 1.7 | 0.00 | 0.00 | 0.00 | 61 | 1006.0 |
| 20260504140314 | 76 | 357 | 1.7 | 1.7 | 0.00 | 0.00 | 0.00 | 58 | 1006.0 |
| 20260504130729 | 70 | 197 | 0.0 | 1.7 | 0.00 | 0.00 | 0.00 | 71 | 1006.6 |
| 20260504130242 | 69 | 210 | 0.0 | 1.7 | 0.00 | 0.00 | 0.00 | 70 | 1007.0 |
| 20260504120110 | 56 | 99 | 0.0 | 0.0 | 0.00 | 0.00 | 0.00 | 95 | 1007.7 |
| 20260504110434 | 54 | 89 | 0.0 | 0.0 | 0.00 | 0.00 | 0.00 | 95 | 1007.0 |
| 20260504100202 | 56 | 109 | 0.0 | 0.0 | 0.00 | 0.00 | 0.00 | 89 | 1007.0 |
| 20260504081524 | 60 | 112 | 0.0 | 0.0 | 0.00 | 0.00 | 0.00 | 77 | 1006.3 |
| 20260504081229 | 60 | 278 | 0.0 | 0.0 | 0.00 | 0.00 | 0.00 | 77 | 1006.3 |
| 20260504080502 | 61 | 3 | 0.0 | 0.0 | 0.00 | 0.00 | 0.00 | 76 | 1006.6 |
| 20260504050200 | 62 | 19 | 0.0 | 1.7 | 0.00 | 0.00 | 0.00 | 71 | 1007.3 |
| 20260504045635 | 62 | 222 | 0.0 | 1.7 | 0.00 | 0.00 | 0.00 | 71 | 1007.7 |
| 20260504045129 | 62 | 67 | 0.0 | 0.0 | 0.00 | 0.00 | 0.00 | 71 | 1007.7 |
| 20260504044624 | 62 | 113 | 0.0 | 0.0 | 0.00 | 0.00 | 0.00 | 71 | 1007.7 |
| 20260504044114 | 63 | 147 | 0.0 | 1.7 | 0.00 | 0.00 | 0.00 | 70 | 1007.7 |
| 20260504043613 | 63 | 58 | 0.0 | 1.7 | 0.00 | 0.00 | 0.00 | 69 | 1007.7 |
| 20260504043113 | 63 | 75 | 0.0 | 1.7 | 0.00 | 0.00 | 0.00 | 70 | 1007.7 |
| 20260504042836 | 63 | 165 | 0.0 | 1.7 | 0.00 | 0.00 | 0.00 | 70 | 1008.0 |
| 20260504042319 | 63 | 139 | 0.0 | 1.7 | 0.00 | 0.00 | 0.00 | 69 | 1008.0 |
| 20260504041606 | 63 | 73 | 0.0 | 0.0 | 0.00 | 0.00 | 0.00 | 69 | 1008.0 |
| 20260504041321 | 63 | 35 | 0.0 | 4.3 | 0.00 | 0.00 | 0.00 | 68 | 1008.0 |
| 20260504040605 | 63 | 9 | 0.0 | 4.3 | 0.00 | 0.00 | 0.00 | 69 | 1008.3 |
| 20260504040053 | 63 | 111 | 0.0 | 0.0 | 0.00 | 0.00 | 0.00 | 69 | 1008.3 |
| 20260504035807 | 63 | 135 | 0.0 | 1.7 | 0.00 | 0.00 | 0.00 | 69 | 1008.0 |
| 20260504035035 | 63 | 126 | 0.0 | 1.7 | 0.00 | 0.00 | 0.00 | 67 | 1008.3 |
| 20260504034529 | 63 | 67 | 0.0 | 0.0 | 0.00 | 0.00 | 0.00 | 68 | 1008.3 |
| 20260504034029 | 63 | 29 | 0.0 | 0.0 | 0.00 | 0.00 | 0.00 | 68 | 1008.3 |
| 20260504033528 | 63 | 223 | 0.0 | 1.7 | 0.00 | 0.00 | 0.00 | 68 | 1008.3 |
| 20260504033244 | 63 | 352 | 0.0 | 0.0 | 0.00 | 0.00 | 0.00 | 67 | 1008.7 |
| 20260504032727 | 63 | 118 | 0.0 | 0.0 | 0.00 | 0.00 | 0.00 | 67 | 1008.3 |
| 20260504031954 | 63 | 114 | 0.0 | 1.7 | 0.00 | 0.00 | 0.00 | 66 | 1008.3 |
| 20260504031714 | 63 | 47 | 0.0 | 1.7 | 0.00 | 0.00 | 0.00 | 67 | 1008.3 |
| 20260504030933 | 63 | 4 | 0.0 | 0.0 | 0.00 | 0.00 | 0.00 | 66 | 1008.3 |
| 20260504030436 | 63 | 127 | 0.0 | 1.7 | 0.00 | 0.00 | 0.00 | 66 | 1008.3 |
| 20260504025928 | 64 | 79 | 0.0 | 1.7 | 0.00 | 0.00 | 0.00 | 65 | 1008.3 |
| 20260504025428 | 64 | 19 | 0.0 | 0.0 | 0.00 | 0.00 | 0.00 | 64 | 1008.3 |
| 20260504024928 | 64 | 98 | 0.0 | 1.7 | 0.00 | 0.00 | 0.00 | 65 | 1008.3 |
| 20260504024412 | 64 | 136 | 0.0 | 1.7 | 0.00 | 0.00 | 0.00 | 64 | 1008.3 |
| 20260504023913 | 64 | 164 | 0.0 | 1.7 | 0.00 | 0.00 | 0.00 | 64 | 1008.3 |
| 20260504023358 | 65 | 4 | 0.0 | 1.7 | 0.00 | 0.00 | 0.00 | 63 | 1008.3 |
| 20260504022853 | 64 | 358 | 0.0 | 1.7 | 0.00 | 0.00 | 0.00 | 62 | 1008.3 |
| 20260504022336 | 64 | 135 | 0.0 | 0.0 | 0.00 | 0.00 | 0.00 | 63 | 1008.0 |
| 20260504021832 | 64 | 156 | 0.0 | 1.7 | 0.00 | 0.00 | 0.00 | 63 | 1008.0 |
| 20260504021317 | 65 | 209 | 0.0 | 1.7 | 0.00 | 0.00 | 0.00 | 62 | 1008.0 |
| 20260504020811 | 65 | 96 | 0.0 | 0.0 | 0.00 | 0.00 | 0.00 | 62 | 1008.0 |
| 20260504020310 | 65 | 129 | 0.0 | 0.0 | 0.00 | 0.00 | 0.00 | 62 | 1008.0 |
| 20260504015755 | 65 | 27 | 0.0 | 0.0 | 0.00 | 0.00 | 0.00 | 62 | 1008.0 |
| 20260504015229 | 65 | 126 | 0.0 | 0.0 | 0.00 | 0.00 | 0.00 | 61 | 1008.0 |
| 20260504014959 | 65 | 108 | 0.0 | 0.0 | 0.00 | 0.00 | 0.00 | 60 | 1008.0 |
| 20260504014229 | 65 | 123 | 0.0 | 0.0 | 0.00 | 0.00 | 0.00 | 60 | 1008.0 |
| 20260504013732 | 66 | 159 | 0.0 | 0.0 | 0.00 | 0.00 | 0.00 | 60 | 1008.0 |
| 20260504013228 | 66 | 90 | 0.0 | 0.0 | 0.00 | 0.00 | 0.00 | 60 | 1007.7 |
| 20260504012712 | 66 | 93 | 0.0 | 0.0 | 0.00 | 0.00 | 0.00 | 58 | 1008.0 |
| 20260504012217 | 67 | 90 | 0.0 | 0.0 | 0.00 | 0.00 | 0.00 | 57 | 1008.0 |